Date,TemperatureHighF,TemperatureAvgF,TemperatureLowF,DewpointHighF,DewpointAvgF,DewpointLowF,HumidityHigh,HumidityAvg,HumidityLow,PressureMaxIn,PressureMinIn,WindSpeedMaxMPH,WindSpeedAvgMPH,GustSpeedMaxMPH,PrecipitationSumIn
2013-1-1,59,46,36,40,30,22,91,60,29,0.00,40.00,10,3,21,0.00
2013-1-2,64,54,42,31,25,21,61,33,21,0.00,40.00,12,5,25,0.00
2013-1-3,65,53,41,30,23,14,64,34,17,0.00,40.00,13,4,27,0.00
2013-1-4,66,49,35,31,26,19,67,45,18,0.00,40.00,4,1,8,0.00
2013-1-5,67,46,33,38,30,24,81,58,21,0.00,40.00,4,1,9,0.00
2013-1-6,54,46,40,47,41,33,95,83,67,0.00,40.00,3,1,10,0.05
2013-1-7,65,55,44,43,32,22,95,45,21,0.00,40.00,13,6,31,0.00
2013-1-8,75,61,46,46,36,28,85,43,21,0.00,40.00,9,3,23,0.00
2013-1-9,71,54,42,47,42,38,92,67,32,0.00,40.00,4,1,10,0.00
2013-1-10,57,49,40,48,38,26,96,70,31,0.00,40.00,6,2,17,0.01
2013-1-11,53,41,28,31,28,26,91,65,40,0.00,40.00,3,0,11,0.00
2013-1-12,54,40,30,31,26,20,83,62,26,0.00,40.00,5,1,12,0.00
2013-1-13,54,40,28,32,25,16,82,59,28,0.00,40.00,11,1,20,0.00
2013-1-14,49,43,37,16,10,7,35,27,18,0.00,40.00,18,9,36,0.00
2013-1-15,62,46,32,29,22,12,59,39,26,0.00,40.00,12,3,23,0.00
2013-1-16,69,52,35,34,28,23,79,45,20,0.00,40.00,12,3,27,0.00
2013-1-17,72,59,42,31,24,19,63,30,14,0.00,40.00,13,5,27,0.00
2013-1-18,75,59,42,32,25,19,56,31,14,0.00,40.00,11,4,20,0.00
2013-1-19,45,45,45,28,28,28,51,51,51,0.00,40.00,1,1,3,0.00
2013-1-23,63,63,63,38,37,36,39,38,37,30.12,30.09,2,0,4,0.00
2013-1-24,65,58,52,56,52,41,96,82,50,30.21,30.10,4,1,8,0.21
2013-1-25,60,58,56,59,56,53,97,93,83,30.14,29.95,4,1,11,0.51
2013-1-26,63,58,54,59,56,54,100,95,84,29.98,29.88,4,1,10,0.06
2013-1-27,61,55,47,55,49,41,96,82,57,30.01,29.93,6,2,12,0.00
2013-1-28,57,47,39,44,39,35,98,77,45,30.16,30.01,6,1,11,0.00
2013-1-29,58,46,35,43,38,33,92,76,52,30.24,30.14,3,1,9,0.00
2013-1-30,67,51,37,47,42,36,98,74,40,30.33,30.19,3,1,8,0.00
2013-1-31,75,61,42,47,41,38,92,52,26,30.21,30.08,9,3,18,0.00